LAGEOS 1

Last updated on Mon Jul 07 2025 00:03:32 GMT+0000 (Coordinated Universal Time)

1 08820U 76039A 25187.41375940 .00000012 00000+0 00000+0 0 9990 2 08820 109.8560 60.9100 0044612 16.1747 196.0905 6.38665063891054
UTC large
Height (km)
Speed (km/s)
/
Latitude / Longitude
Inclination (degrees)
Orbital Period (minutes)
Azimuth
Elevation
Range (km)
Doppler Factor

Next 0 passes for location: London (51.5072 / 0.1276)

Sorry there are no passes over London.